Regional Weather Roundup
Issued by NWS

Home | Current Version | Previous Version | Text Only | Print | Product List | Glossary On
Versions: 1 2 3 4 5 6 7 8 9 10 11 12 13 14 15 16 17 18 19 20 21 22 23 24 25 26 27 28 29 30 31 32 33 34 35 36 37 38 39 40 41 42 43 44 45 46 47 48 49 50
032
ASUS43 KMKX 011621
RWRWI

WISCONSIN REGIONAL WEATHER ROUNDUP
NATIONAL WEATHER SERVICE MILWAUKEE/SULLIVAN WI
1100 AM CDT FRI JUL 01 2016

NOTE: "FAIR" INDICATES FEW OR NO CLOUDS BELOW 12,000 FEET WITH NO
SIGNIFICANT WEATHER AND/OR OBSTRUCTIONS TO VISIBILITY.

WIZ001-002-006>008-014>016-023>028-011700-
NORTHWEST WISCONSIN

CITY           SKY/WX    TMP DP  RH WIND       PRES   REMARKS
SUPERIOR ARPT  SUNNY     67  51  57 SW6       30.18S
ASHLAND        SUNNY     67  50  54 CALM      30.17S
HAYWARD        SUNNY     64  46  52 VRB6      30.19S
SIREN          SUNNY     64  44  49 W3        30.21S
CUMBERLAND     SUNNY     61  43  51 SE5       30.21R
RICE LAKE      SUNNY     63  46  52 NE6       30.22R
CHETEK         SUNNY     63  49  58 CALM      30.20R
LADYSMITH      SUNNY     64  47  53 N6        30.19F
EAU CLAIRE     SUNNY     65  46  50 VRB3      30.18S
MENOMONIE      SUNNY     67  46  46 N3        30.20S
NEW RICHMOND   SUNNY     64  45  50 E5        30.21S
OSCEOLA        SUNNY     63  47  54 CALM      30.24S
$$

WIZ003>005-009-010-017-018-011700-
NORTH CENTRAL WISCONSIN

CITY           SKY/WX    TMP DP  RH WIND       PRES   REMARKS
MANITOWISH WTR MOSUNNY   62  48  60 N9        30.16S
ARBOR VITAE    MOSUNNY   63  49  59 N9        30.15S
WOODRUFF       MOSUNNY   63  49  59 N9        30.15S
RHINELANDER    MOSUNNY   64  46  52 NW13G20   30.15S
EAGLE RIVER    MOSUNNY   63  45  51 N9G17     30.14S
LAND O LAKES   MOSUNNY   64  46  52 NW14      30.15S
PHILLIPS       MOSUNNY   62  50  63 N8        30.16S
TOMAHAWK       SUNNY     62  46  55 N8        30.16S
MEDFORD        SUNNY     62  48  61 N6        30.16S
MERRILL        SUNNY     63  47  56 N10       30.15R
$$

WIZ029-030-035-036-043>047-011700-
CENTRAL WISCONSIN

CITY           SKY/WX    TMP DP  RH WIND       PRES   REMARKS
WAUSAU         SUNNY     64  46  52 NW6       30.13S
MOSINEE        MOSUNNY   63  46  55 N10       30.16R
MARSHFIELD     SUNNY     65  47  52 NE8       30.16R
STEVENS POINT  MOSUNNY   61  46  56 N5        30.15R
WAUPACA        SUNNY     66  48  52 N10       30.14R
WAUTOMA        SUNNY     63  48  58 N10       30.15R
WISC RAPIDS    SUNNY     65  46  50 E6        30.17R
CAMP DOUGLAS   MOSUNNY   64  52  63 VRB3      30.16R
$$

WIZ011>013-019>022-031-037>040-048>050-011700-
NORTHEAST WISCONSIN

CITY           SKY/WX    TMP DP  RH WIND       PRES   REMARKS
ANTIGO         SUNNY     62  48  60 N12       30.14S
SHAWANO        MOSUNNY   67  48  50 NE7       30.12S
OCONTO         SUNNY     64  47  54 NW7       30.09F
STURGEON BAY   SUNNY     61  49  64 N13       30.10S
GREEN BAY      SUNNY     64  48  56 NE10      30.11R
MANITOWOC      MOSUNNY   62  49  62 N13       30.10R
APPLETON       MOSUNNY   63  45  51 N12G20    30.10S
CLINTONVILLE   SUNNY     64  45  48 NE12G17   30.11F
OSHKOSH        SUNNY     63  48  58 N13       30.11S
$$

WIZ032>034-041-042-053>061-011700-
SOUTHWEST WISCONSIN

CITY           SKY/WX    TMP DP  RH WIND       PRES   REMARKS
LA CROSSE      PTSUNNY   65  53  65 NW8       30.17S
SPARTA         MOSUNNY   64  51  61 N8        30.18R
VIROQUA        PTSUNNY   61  53  73 N9        30.18R
BOSCOBEL       PTSUNNY   67  54  63 NW8G16    30.16S
PRAIRIE DU CHI PTSUNNY   64  50  59 N10       30.16R
PLATTEVILLE    PTSUNNY   64  55  71 N13       30.15R
$$

WIZ056-057-062-063-064-067-068-011700-
SOUTH CENTRAL WISCONSIN

CITY           SKY/WX    TMP DP  RH WIND       PRES   REMARKS
REEDSBURG      PTSUNNY   64  50  60 N7        30.15R
BARABOO/DELLS  PTSUNNY   63  49  60 NW7       30.15R
LONE ROCK      MOSUNNY   66  51  58 N9        30.15S
MINERAL POINT  PTSUNNY   64  54  68 N8        30.14S
MADISON        PTSUNNY   63  52  67 N8        30.13R
MIDDLETON      CLOUDY    66  53  63 NW13      30.14R
WATERTOWN      CLOUDY    63  52  66 NW12G17   30.11S
MONROE         MOSUNNY   63  52  67 N14       30.13S
JANESVILLE     MOSUNNY   68  52  56 N8        30.11S
$$

WIZ051-052-058>065-066-070>072-011700-
SOUTHEAST WISCONSIN

CITY           SKY/WX    TMP DP  RH WIND       PRES   REMARKS
MILWAUKEE      PTSUNNY   66  51  58 N9G20     30.09R
WAUKESHA       PTSUNNY   63  50  63 NW14G21   30.12R
MILWAUKEE/TIMM PTSUNNY   64  48  55 NW14      30.11R
RACINE         SUNNY     68  52  56 NE10      30.11R
BURLINGTON     MOSUNNY   67  52  59 NW8       30.10R
KENOSHA        PTSUNNY   70  53  54 N7        30.10R
FOND DU LAC    MOSUNNY   64  50  60 N15G23    30.12S
SHEBOYGAN      MOSUNNY   63  49  60 N12       30.10R
WEST BEND      CLOUDY    63  48  59 NW13      30.11R
JUNEAU         PTSUNNY   59  49  69 NW10G17   30.13R
$$

LSZ147-162-011700-
LAKE SUPERIOR

STATION/POSITION TIME  TEMP    WIND        PRES    WAVE
                       AIR SEA DIR/SP/G            HT/PER
                 (UTC) (F)     (DEG/KT/KT) (MB)    (FT/S)
W MID LAKE BUOY  1550   46 43  240/  6/  6 1020.3R   1/ 3
DEVILS ISLAND    1600   56     240/ 13/ 15 1021.5F
PORT WING        1540   60                 1022.0S
SAXON HARBOR     1500   60     320/  4/  7 1021.3
$$

LMZ867-665-643>646-011700-
LAKE MICHIGAN

STATION/POSITION TIME  TEMP    WIND        PRES    WAVE
                       AIR SEA DIR/SP/G            HT/PER
                 (UTC) (F)     (DEG/KT/KT) (MB)    (FT/S)
CHAMBERS ISLAND  1500   61     320/ 10/ 13 1018.6
N MID LAKE BUOY  1550   58 58  310/ 14/ 17 1017.3R   3/ 4
NORTHPORT PIER   1500   59     340/ 14/ 17 1018.3R
SISTER BAY       1505   62     330/ 18/ 21   N/A
ALGOMA LAKESHORE 1527          330/ 16/ 20   N/A
KEWAUNEE LAKESHO 1500   60     330/ 11/ 15 1018.2R
SHEBOYGAN LAKESH 1600   59      10/ 15/ 17 1019.5R
PORT WASHINGTON  1540   65     340/  7/ 12 1019.6R
ATWATER BUOY     1600   62 65   30/ 16/ 17 1020.6R
MILWAUKEE LAKESH 1610   62      30/ 19/ 21   N/A
S MID LAKE BUOY  1550   59 63   10/ 17/ 21 1017.7R   6/ 6
KENOSHA   LAKESH 1600   62      40/ 14/ 16 1018.6R
$$

TC  - TEMPERATURE IN CELSIUS
VSB - VISIBILITY IN STATUTE MILES
WCI - WIND CHILL INDEX
HX  - HEAT INDEX





USA.gov is the U.S. government's official web portal to all federal, state and local government web resources and services.